Location: Burla
(50.9568°N, 10.4983°E)
Time: 22:38:51
(UTC+00:00)

Cosmos 2344 - Pass Details

Date: 18 January 2026
Orbit: 1195 x 3047 km, 63.3° (Epoch: 16 February)

Event Time Altitude Azimuth Distance (km) Brightness Sun altitude
Exits shadow 05:39:56 13° 316° (NW) 2,996 5.0 -14.0°
Maximum altitude 05:46:31 47° 28° (NNE) 1,754 4.4 -13.0°
Drops below altitude 10° 05:55:29 10° 101° (ESE) 3,972 7.7 -11.7°
Sets 05:59:16 0° 108° (ESE) 5,221 9.0 -11.1°
